Погода в Заливном

Россия / Самарская область     53°02′57″N   51°26′16″E
темп.,
°C
ветер,
м/с
пор.,
м/с
влажн.,
%
обл.,
%
осадки,
мм/ч
давл.,
гПа
погр.,
м
13 июня, вс
вс1301:00+16ю228920 0.4 101326
04:00+16ююв22880 0.6 101417
07:00+19ююв24772 0.1 1014181
10:00+24ю456084 0.1 1015908
13:00+27ю464865 0.0 10142454
16:00+26ю245836 0.0 1014366
19:00+24юз126769 0.0 101442
22:00+21ююв117096 0.0 101516
14 июня, пн
пн1401:00+18ююв227953 0.0 101515
04:00+17вюв338131 0.0 101535
07:00+21в23707 0.0 1016149
10:00+25вюв4454100 0.0 1016667
13:00+27вюв445192 0.0 1016872
16:00+28вюв354273 0.0 10151617
19:00+26всв2256100 0.0 101423
22:00+21в46677 0.0 101473
15 июня, вт
вт1501:00+20ю386929 0.0 1013166
04:00+18вюв3580100 0.1 101497
07:00+20ююв3678100 0.0 1015171
10:00+21ю2574100 0.0 1015188
13:00+26вюв345450 0.0 1014830
16:00+26вюв3456100 0.0 1013350
19:00+25ссв2365100 0.0 101159
22:00+20в237599 0.0 101121
16 июня, ср
ср1601:00+19ююв11668 0.0 101111
04:00+18вюв336184 0.0 101126
07:00+20в376796 0.0 1010172
10:00+25юв595197 0.0 1009693
13:00+28ююв794221 0.1 10081246
16:00+28ю5646100 0.1 10071372
19:00+27ююв2260100 0.0 100617
22:00+21зюз48781 0.0 1006132
17 июня, чт
чт1701:00+19зсз498432 0.1 1007192
04:00+18сз6129499 1.8 1009385
07:00+19сз611865 0.1 1011507
10:00+21ссз81069100 0.1 1013919
13:00+22ссз89455 0.0 10141486
16:00+22с89450 0.0 10151770
19:00+19с69600 0.0 10161037
22:00+14ссз311750 0.0 1018218